QPF
0.00 0.00 0.00 0.00 0.00 0.00 0.00 0.00 0.00 0.00 0.00 0.00 0.00 0.01 0.00 0.01 0.01 0.02 0.01 0.00 0.00 0.00 0.01 0.03 0.06 0.06 0.05 0.05 0.04 0.04 0.05 0.05 0.05 0.05 0.05 0.04 0.04 0.05 0.05 0.05 0.07 0.09 0.08 0.08 0.09 0.07 0.06 0.06 0.07
0.00 0.00 0.00 0.00 0.00 0.00 0.00 0.00 0.00 0.00 0.00 0.00 0.01 0.00 0.00 0.00 0.00 0.01 0.01 0.00 0.00 0.01 0.02 0.03 0.06 0.06 0.06 0.06 0.05 0.04 0.05 0.04 0.05 0.05 0.05 0.04 0.05 0.06 0.05 0.05 0.05 0.07 0.06 0.06 0.07 0.08 0.06 0.06 0.06
0.00 0.00 0.00 0.00 0.00 0.00 0.00 0.00 0.00 0.00 0.00 0.00 0.00 0.00 0.00 0.00 0.00 0.00 0.00 0.00 0.00 0.01 0.02 0.02 0.04 0.04 0.06 0.06 0.05 0.04 0.05 0.04 0.04 0.04 0.04 0.04 0.04 0.05 0.05 0.05 0.04 0.05 0.05 0.05 0.05 0.08 0.07 0.06 0.05
0.00 0.00 0.00 0.00 0.00 0.00 0.00 0.00 0.00 0.00 0.00 0.00 0.01 0.00 0.00 0.00 0.00 0.00 0.00 0.00 0.00 0.01 0.02 0.03 0.04 0.04 0.05 0.05 0.04 0.03 0.04 0.03 0.03 0.03 0.04 0.04 0.04 0.03 0.03 0.04 0.04 0.04 0.04 0.04 0.04 0.05 0.07 0.06 0.05
0.00 0.00 0.00 0.00 0.00 0.00 0.00 0.00 0.00 0.00 0.00 0.00 0.00 0.00 0.00 0.00 0.00 0.00 0.00 0.00 0.00 0.01 0.03 0.05 0.05 0.05 0.05 0.05 0.04 0.03 0.03 0.02 0.02 0.02 0.02 0.03 0.03 0.03 0.03 0.03 0.03 0.03 0.04 0.04 0.03 0.04 0.06 0.06 0.06
0.00 0.00 0.00 0.00 0.00 0.00 0.00 0.00 0.00 0.00 0.00 0.00 0.00 0.00 0.00 0.00 0.00 0.00 0.00 0.00 0.00 0.01 0.02 0.05 0.07 0.06 0.04 0.04 0.04 0.04 0.04 0.04 0.04 0.02 0.02 0.02 0.02 0.03 0.03 0.03 0.02 0.03 0.04 0.05 0.04 0.04 0.04 0.06 0.05
0.00 0.00 0.00 0.00 0.00 0.00 0.00 0.00 0.00 0.00 0.00 0.00 0.00 0.00 0.00 0.00 0.00 0.00 0.00 0.01 0.01 0.01 0.02 0.03 0.06 0.07 0.05 0.03 0.03 0.04 0.04 0.04 0.04 0.04 0.02 0.01 0.01 0.02 0.02 0.03 0.03 0.03 0.03 0.04 0.05 0.05 0.04 0.05 0.05
0.00 0.00 0.00 0.00 0.00 0.00 0.00 0.00 0.00 0.00 0.00 0.00 0.00 0.00 0.00 0.00 0.00 0.00 0.01 0.01 0.01 0.01 0.01 0.02 0.04 0.06 0.06 0.04 0.02 0.04 0.03 0.03 0.02 0.02 0.02 0.01 0.01 0.02 0.02 0.02 0.03 0.03 0.03 0.03 0.05 0.06 0.06 0.06 0.05
0.00 0.00 0.00 0.00 0.00 0.00 0.00 0.00 0.00 0.00 0.00 0.00 0.00 0.00 0.00 0.00 0.01 0.00 0.00 0.01 0.01 0.01 0.01 0.01 0.02 0.04 0.05 0.04 0.03 0.03 0.02 0.02 0.01 0.01 0.01 0.02 0.02 0.02 0.02 0.02 0.03 0.03 0.03 0.03 0.04 0.05 0.07 0.08 0.05
0.00 0.00 0.00 0.00 0.00 0.00 0.00 0.00 0.00 0.00 0.00 0.00 0.00 0.00 0.00 0.00 0.00 0.00 0.00 0.01 0.01 0.02 0.02 0.02 0.02 0.04 0.04 0.04 0.04 0.03 0.01 0.01 0.01 0.00 0.00 0.01 0.02 0.03 0.03 0.02 0.03 0.04 0.04 0.03 0.03 0.04 0.05 0.06 0.08
0.00 0.00 0.00 0.00 0.00 0.00 0.00 0.00 0.00 0.01 0.00 0.00 0.00 0.00 0.00 0.00 0.00 0.00 0.00 0.01 0.01 0.02 0.02 0.03 0.03 0.04 0.05 0.05 0.05 0.04 0.02 0.01 0.01 0.00 0.00 0.00 0.01 0.02 0.03 0.03 0.03 0.03 0.05 0.04 0.03 0.03 0.04 0.05 0.07
0.00 0.00 0.00 0.00 0.00 0.00 0.00 0.00 0.00 0.00 0.00 0.00 0.00 0.00 0.00 0.00 0.00 0.00 0.00 0.01 0.01 0.01 0.02 0.02 0.03 0.04 0.04 0.05 0.03 0.03 0.03 0.02 0.01 0.01 0.00 0.00 0.01 0.01 0.03 0.04 0.04 0.04 0.05 0.05 0.04 0.03 0.03 0.05 0.05
0.00 0.00 0.00 0.00 0.00 0.00 0.00 0.00 0.00 0.00 0.00 0.00 0.00 0.00 0.00 0.00 0.00 0.01 0.01 0.01 0.01 0.01 0.02 0.02 0.04 0.04 0.04 0.06 0.05 0.04 0.03 0.02 0.01 0.01 0.00 0.00 0.01 0.01 0.02 0.03 0.04 0.04 0.05 0.05 0.05 0.04 0.04 0.05 0.05
0.00 0.00 0.00 0.00 0.00 0.00 0.00 0.00 0.00 0.00 0.00 0.00 0.00 0.00 0.00 0.00 0.00 0.00 0.01 0.01 0.01 0.02 0.02 0.03 0.03 0.04 0.04 0.05 0.05 0.05 0.03 0.02 0.01 0.01 0.00 0.00 0.00 0.01 0.03 0.03 0.03 0.04 0.04 0.05 0.06 0.05 0.05 0.06 0.05
0.00 0.00 0.00 0.00 0.00 0.00 0.00 0.00 0.00 0.00 0.00 0.00 0.00 0.00 0.00 0.00 0.00 0.01 0.01 0.02 0.02 0.02 0.03 0.03 0.03 0.03 0.03 0.02 0.03 0.03 0.04 0.03 0.02 0.01 0.01 0.00 0.00 0.01 0.03 0.03 0.03 0.03 0.03 0.04 0.06 0.07 0.06 0.07 0.06
0.00 0.00 0.00 0.00 0.00 0.00 0.00 0.00 0.00 0.00 0.00 0.00 0.00 0.00 0.00 0.00 0.01 0.01 0.02 0.02 0.02 0.02 0.03 0.03 0.03 0.03 0.03 0.02 0.03 0.03 0.04 0.04 0.03 0.02 0.01 0.01 0.01 0.03 0.03 0.03 0.03 0.03 0.03 0.03 0.05 0.07 0.06 0.07 0.06
0.00 0.00 0.00 0.00 0.00 0.00 0.00 0.00 0.00 0.00 0.00 0.00 0.00 0.00 0.01 0.01 0.01 0.01 0.02 0.02 0.03 0.03 0.02 0.03 0.04 0.04 0.04 0.03 0.03 0.03 0.04 0.04 0.04 0.03 0.01 0.01 0.01 0.02 0.04 0.03 0.03 0.03 0.02 0.03 0.04 0.06 0.07 0.07 0.06
0.00 0.00 0.00 0.00 0.00 0.00 0.00 0.00 0.00 0.00 0.00 0.00 0.00 0.01 0.01 0.01 0.01 0.01 0.02 0.02 0.03 0.04 0.03 0.02 0.02 0.03 0.03 0.03 0.03 0.03 0.03 0.04 0.03 0.03 0.02 0.02 0.01 0.02 0.04 0.03 0.02 0.03 0.02 0.03 0.05 0.05 0.07 0.07 0.07
0.00 0.00 0.00 0.00 0.00 0.00 0.00 0.00 0.00 0.00 0.00 0.00 0.00 0.00 0.01 0.01 0.01 0.01 0.02 0.02 0.03 0.03 0.04 0.02 0.01 0.02 0.02 0.02 0.02 0.02 0.02 0.03 0.03 0.03 0.03 0.03 0.03 0.04 0.06 0.06 0.03 0.03 0.03 0.02 0.04 0.05 0.06 0.08 0.09
0.00 0.00 0.00 0.00 0.00 0.00 0.00 0.00 0.00 0.00 0.00 0.00 0.00 0.00 0.00 0.01 0.01 0.01 0.01 0.02 0.02 0.03 0.04 0.03 0.02 0.02 0.02 0.02 0.02 0.02 0.02 0.02 0.03 0.03 0.04 0.04 0.03 0.03 0.05 0.08 0.06 0.03 0.03 0.03 0.03 0.04 0.05 0.08 0.10
0.00 0.00 0.00 0.00 0.00 0.00 0.00 0.00 0.00 0.00 0.00 0.00 0.00 0.00 0.01 0.01 0.01 0.01 0.01 0.01 0.02 0.02 0.03 0.04 0.03 0.01 0.01 0.02 0.02 0.02 0.02 0.03 0.03 0.03 0.03 0.04 0.04 0.04 0.03 0.05 0.07 0.06 0.04 0.03 0.04 0.04 0.03 0.05 0.08
0.01 0.00 0.00 0.00 0.00 0.00 0.00 0.00 0.00 0.00 0.00 0.00 0.00 0.00 0.01 0.01 0.01 0.01 0.01 0.00 0.01 0.01 0.01 0.02 0.03 0.02 0.01 0.01 0.01 0.02 0.02 0.02 0.02 0.02 0.02 0.03 0.04 0.05 0.04 0.03 0.04 0.06 0.06 0.04 0.04 0.04 0.03 0.03 0.06
0.02 0.00 0.00 0.01 0.00 0.00 0.00 0.00 0.00 0.00 0.00 0.00 0.00 0.00 0.00 0.00 0.01 0.01 0.01 0.00 0.00 0.00 0.01 0.01 0.01 0.02 0.01 0.01 0.01 0.01 0.01 0.01 0.01 0.01 0.02 0.03 0.03 0.04 0.04 0.03 0.02 0.04 0.05 0.06 0.06 0.06 0.05 0.04 0.05
0.02 0.02 0.01 0.02 0.02 0.01 0.00 0.00 0.00 0.00 0.00 0.00 0.00 0.00 0.00 0.00 0.00 0.00 0.00 0.00 0.00 0.00 0.00 0.00 0.01 0.01 0.00 0.00 0.01 0.01 0.01 0.01 0.02 0.01 0.02 0.02 0.03 0.04 0.03 0.03 0.03 0.02 0.03 0.04 0.05 0.06 0.06 0.05 0.04
0.02 0.02 0.03 0.03 0.04 0.02 0.00 0.00 0.00 0.00 0.00 0.00 0.00 0.00 0.00 0.00 0.00 0.00 0.00 0.00 0.00 0.00 0.00 0.00 0.00 0.01 0.00 0.00 0.00 0.01 0.01 0.01 0.02 0.02 0.02 0.03 0.03 0.04 0.04 0.04 0.03 0.03 0.02 0.02 0.03 0.06 0.05 0.05 0.05
0.02 0.03 0.03 0.03 0.02 0.01 0.00 0.00 0.00 0.00 0.00 0.00 0.00 0.00 0.01 0.01 0.00 0.00 0.00 0.00 0.00 0.00 0.00 0.00 0.00 0.00 0.00 0.00 0.00 0.00 0.01 0.01 0.02 0.02 0.03 0.04 0.04 0.04 0.04 0.05 0.04 0.03 0.02 0.02 0.03 0.05 0.06 0.05 0.04
0.02 0.03 0.02 0.02 0.02 0.01 0.01 0.01 0.01 0.00 0.00 0.00 0.00 0.00 0.01 0.01 0.01 0.00 0.00 0.00 0.00 0.00 0.00 0.00 0.00 0.00 0.00 0.00 0.00 0.00 0.01 0.01 0.01 0.02 0.03 0.04 0.05 0.05 0.05 0.05 0.05 0.05 0.03 0.03 0.04 0.05 0.06 0.05 0.04
0.02 0.03 0.03 0.03 0.04 0.02 0.01 0.01 0.01 0.01 0.00 0.00 0.00 0.00 0.01 0.01 0.01 0.01 0.00 0.01 0.01 0.01 0.01 0.00 0.00 0.00 0.00 0.00 0.00 0.00 0.01 0.01 0.01 0.02 0.03 0.03 0.04 0.05 0.06 0.06 0.06 0.06 0.04 0.03 0.03 0.05 0.07 0.06 0.04
0.01 0.03 0.05 0.04 0.04 0.02 0.02 0.02 0.02 0.01 0.01 0.01 0.01 0.01 0.01 0.02 0.01 0.01 0.01 0.01 0.01 0.01 0.01 0.00 0.00 0.00 0.00 0.00 0.01 0.01 0.01 0.01 0.02 0.02 0.03 0.03 0.03 0.04 0.05 0.05 0.05 0.04 0.04 0.03 0.03 0.04 0.06 0.06 0.04
0.01 0.02 0.04 0.05 0.03 0.02 0.03 0.03 0.02 0.02 0.02 0.01 0.02 0.01 0.01 0.02 0.02 0.01 0.01 0.01 0.02 0.02 0.02 0.01 0.01 0.01 0.01 0.00 0.01 0.01 0.02 0.02 0.01 0.02 0.02 0.02 0.03 0.03 0.04 0.04 0.03 0.03 0.03 0.03 0.03 0.03 0.04 0.05 0.04
MSLP
1014.89 1014.95 1015.02 1015.04 1015.00 1014.86 1014.62 1014.28 1013.88 1013.48 1013.15 1012.95 1012.95 1013.15 1013.58 1014.19 1014.93 1015.71 1016.46 1017.12 1017.64 1018.02 1018.28 1018.44 1018.56 1018.67 1018.81 1018.97 1019.15 1019.32 1019.45 1019.50 1019.47 1019.36 1019.19 1018.99 1018.79 1018.60 1018.45 1018.34 1018.25 1018.17 1018.10 1018.02 1017.92 1017.82 1017.71 1017.60 1017.48
1015.01 1015.00 1014.98 1014.92 1014.80 1014.60 1014.31 1013.97 1013.60 1013.27 1013.04 1012.96 1013.08 1013.41 1013.94 1014.61 1015.38 1016.14 1016.84 1017.42 1017.86 1018.15 1018.33 1018.45 1018.55 1018.67 1018.84 1019.05 1019.29 1019.52 1019.70 1019.82 1019.84 1019.79 1019.66 1019.50 1019.32 1019.14 1018.99 1018.85 1018.72 1018.60 1018.48 1018.37 1018.25 1018.13 1018.01 1017.90 1017.77
1015.05 1014.95 1014.82 1014.65 1014.44 1014.17 1013.87 1013.54 1013.24 1013.02 1012.92 1012.99 1013.27 1013.73 1014.36 1015.11 1015.90 1016.66 1017.32 1017.84 1018.21 1018.44 1018.57 1018.66 1018.75 1018.87 1019.06 1019.30 1019.56 1019.82 1020.04 1020.19 1020.26 1020.24 1020.16 1020.03 1019.88 1019.72 1019.55 1019.39 1019.22 1019.06 1018.89 1018.73 1018.58 1018.44 1018.31 1018.18 1018.05
1014.99 1014.78 1014.53 1014.26 1013.96 1013.64 1013.33 1013.05 1012.84 1012.75 1012.80 1013.04 1013.47 1014.07 1014.80 1015.60 1016.42 1017.16 1017.79 1018.28 1018.61 1018.82 1018.94 1019.02 1019.12 1019.26 1019.46 1019.71 1019.98 1020.24 1020.46 1020.62 1020.70 1020.71 1020.67 1020.57 1020.44 1020.30 1020.13 1019.95 1019.75 1019.55 1019.35 1019.15 1018.96 1018.79 1018.65 1018.50 1018.35
1014.81 1014.50 1014.16 1013.80 1013.43 1013.09 1012.80 1012.58 1012.47 1012.51 1012.72 1013.11 1013.67 1014.37 1015.18 1016.02 1016.84 1017.58 1018.19 1018.65 1018.98 1019.20 1019.34 1019.46 1019.60 1019.77 1019.98 1020.23 1020.48 1020.73 1020.93 1021.07 1021.16 1021.18 1021.16 1021.09 1021.00 1020.87 1020.71 1020.53 1020.32 1020.09 1019.86 1019.63 1019.41 1019.22 1019.04 1018.88 1018.71
1014.53 1014.16 1013.76 1013.35 1012.97 1012.63 1012.38 1012.23 1012.22 1012.38 1012.71 1013.21 1013.86 1014.63 1015.47 1016.32 1017.13 1017.84 1018.44 1018.90 1019.25 1019.51 1019.71 1019.89 1020.08 1020.29 1020.54 1020.79 1021.03 1021.25 1021.43 1021.55 1021.62 1021.65 1021.64 1021.60 1021.53 1021.42 1021.29 1021.11 1020.91 1020.67 1020.42 1020.17 1019.93 1019.71 1019.51 1019.32 1019.13
1014.20 1013.82 1013.41 1013.01 1012.65 1012.35 1012.15 1012.08 1012.15 1012.40 1012.80 1013.36 1014.05 1014.84 1015.66 1016.49 1017.26 1017.95 1018.53 1019.00 1019.38 1019.70 1019.97 1020.23 1020.49 1020.77 1021.05 1021.32 1021.57 1021.77 1021.92 1022.03 1022.09 1022.11 1022.11 1022.08 1022.03 1021.95 1021.84 1021.68 1021.48 1021.25 1020.99 1020.73 1020.48 1020.24 1020.01 1019.80 1019.58
1013.89 1013.54 1013.18 1012.83 1012.53 1012.29 1012.16 1012.14 1012.27 1012.55 1012.98 1013.55 1014.22 1014.98 1015.76 1016.54 1017.27 1017.92 1018.49 1018.98 1019.40 1019.77 1020.12 1020.46 1020.81 1021.15 1021.48 1021.78 1022.04 1022.24 1022.39 1022.48 1022.53 1022.55 1022.55 1022.54 1022.50 1022.44 1022.34 1022.20 1022.01 1021.79 1021.54 1021.27 1021.00 1020.75 1020.50 1020.25 1020.01
1013.64 1013.36 1013.08 1012.82 1012.59 1012.43 1012.34 1012.36 1012.50 1012.78 1013.18 1013.71 1014.34 1015.03 1015.76 1016.48 1017.17 1017.80 1018.36 1018.87 1019.33 1019.77 1020.19 1020.61 1021.02 1021.43 1021.80 1022.14 1022.43 1022.64 1022.80 1022.90 1022.95 1022.97 1022.97 1022.96 1022.92 1022.86 1022.77 1022.64 1022.46 1022.24 1022.00 1021.73 1021.45 1021.17 1020.90 1020.63 1020.37
1013.46 1013.27 1013.09 1012.93 1012.78 1012.67 1012.62 1012.64 1012.75 1012.98 1013.33 1013.79 1014.35 1014.98 1015.65 1016.34 1017.00 1017.63 1018.21 1018.75 1019.26 1019.75 1020.22 1020.70 1021.16 1021.62 1022.03 1022.41 1022.72 1022.96 1023.14 1023.26 1023.32 1023.35 1023.35 1023.33 1023.28 1023.21 1023.11 1022.97 1022.79 1022.58 1022.34 1022.07 1021.78 1021.49 1021.20 1020.91 1020.62
1013.34 1013.24 1013.15 1013.07 1012.98 1012.91 1012.85 1012.84 1012.90 1013.06 1013.33 1013.72 1014.21 1014.79 1015.43 1016.10 1016.78 1017.43 1018.06 1018.65 1019.21 1019.75 1020.27 1020.78 1021.28 1021.75 1022.19 1022.59 1022.92 1023.20 1023.40 1023.54 1023.63 1023.66 1023.66 1023.63 1023.56 1023.47 1023.35 1023.20 1023.01 1022.80 1022.55 1022.29 1022.00 1021.69 1021.38 1021.07 1020.76
1013.25 1013.22 1013.19 1013.16 1013.10 1013.01 1012.92 1012.86 1012.85 1012.93 1013.13 1013.45 1013.90 1014.45 1015.10 1015.79 1016.51 1017.23 1017.92 1018.58 1019.20 1019.79 1020.35 1020.88 1021.39 1021.87 1022.31 1022.71 1023.06 1023.35 1023.58 1023.75 1023.85 1023.90 1023.90 1023.85 1023.77 1023.65 1023.51 1023.34 1023.15 1022.93 1022.69 1022.42 1022.14 1021.83 1021.50 1021.17 1020.84
1013.15 1013.15 1013.15 1013.12 1013.04 1012.92 1012.78 1012.65 1012.57 1012.58 1012.72 1013.00 1013.43 1014.00 1014.67 1015.42 1016.21 1017.01 1017.79 1018.53 1019.23 1019.87 1020.46 1021.00 1021.50 1021.97 1022.39 1022.79 1023.13 1023.44 1023.68 1023.87 1023.99 1024.05 1024.06 1024.00 1023.91 1023.77 1023.61 1023.43 1023.24 1023.03 1022.79 1022.54 1022.26 1021.95 1021.61 1021.26 1020.91
1013.02 1013.02 1013.00 1012.93 1012.80 1012.62 1012.42 1012.23 1012.10 1012.08 1012.19 1012.47 1012.91 1013.50 1014.22 1015.03 1015.90 1016.78 1017.64 1018.46 1019.22 1019.92 1020.54 1021.10 1021.60 1022.05 1022.46 1022.83 1023.17 1023.47 1023.72 1023.92 1024.06 1024.14 1024.15 1024.11 1024.01 1023.87 1023.71 1023.53 1023.35 1023.15 1022.94 1022.70 1022.43 1022.12 1021.78 1021.40 1021.02
1012.90 1012.86 1012.78 1012.64 1012.44 1012.20 1011.94 1011.72 1011.58 1011.56 1011.70 1012.00 1012.47 1013.09 1013.85 1014.69 1015.60 1016.53 1017.45 1018.33 1019.15 1019.89 1020.55 1021.14 1021.65 1022.10 1022.49 1022.85 1023.17 1023.47 1023.72 1023.93 1024.09 1024.18 1024.22 1024.19 1024.11 1023.99 1023.84 1023.68 1023.52 1023.35 1023.16 1022.95 1022.70 1022.39 1022.04 1021.64 1021.22
1012.85 1012.74 1012.57 1012.34 1012.06 1011.76 1011.49 1011.28 1011.18 1011.21 1011.40 1011.76 1012.26 1012.90 1013.65 1014.48 1015.37 1016.29 1017.21 1018.10 1018.95 1019.74 1020.44 1021.07 1021.61 1022.08 1022.48 1022.84 1023.16 1023.44 1023.70 1023.92 1024.09 1024.21 1024.27 1024.28 1024.23 1024.14 1024.02 1023.90 1023.77 1023.63 1023.48 1023.29 1023.06 1022.76 1022.39 1021.97 1021.52
1012.96 1012.75 1012.47 1012.14 1011.79 1011.46 1011.20 1011.05 1011.04 1011.18 1011.46 1011.88 1012.41 1013.03 1013.72 1014.47 1015.27 1016.09 1016.94 1017.79 1018.63 1019.44 1020.19 1020.87 1021.46 1021.98 1022.42 1022.79 1023.12 1023.42 1023.68 1023.91 1024.10 1024.25 1024.35 1024.39 1024.39 1024.34 1024.27 1024.18 1024.08 1023.98 1023.85 1023.69 1023.47 1023.19 1022.82 1022.38 1021.89
1013.31 1012.98 1012.57 1012.13 1011.71 1011.38 1011.18 1011.13 1011.26 1011.54 1011.95 1012.44 1012.98 1013.55 1014.13 1014.72 1015.33 1015.98 1016.68 1017.43 1018.22 1019.01 1019.80 1020.54 1021.21 1021.79 1022.29 1022.71 1023.07 1023.38 1023.66 1023.91 1024.12 1024.30 1024.44 1024.53 1024.57 1024.57 1024.54 1024.49 1024.42 1024.34 1024.24 1024.10 1023.89 1023.62 1023.25 1022.81 1022.31
1013.93 1013.46 1012.91 1012.36 1011.90 1011.58 1011.46 1011.55 1011.85 1012.31 1012.85 1013.42 1013.96 1014.44 1014.85 1015.22 1015.59 1016.00 1016.48 1017.07 1017.76 1018.52 1019.32 1020.12 1020.87 1021.54 1022.11 1022.60 1023.00 1023.35 1023.64 1023.91 1024.15 1024.37 1024.55 1024.68 1024.77 1024.81 1024.82 1024.79 1024.74 1024.67 1024.57 1024.44 1024.25 1023.99 1023.65 1023.22 1022.73
1014.82 1014.19 1013.50 1012.84 1012.32 1012.03 1012.01 1012.27 1012.75 1013.39 1014.08 1014.73 1015.25 1015.63 1015.85 1015.97 1016.05 1016.17 1016.40 1016.79 1017.34 1018.03 1018.83 1019.67 1020.49 1021.25 1021.90 1022.45 1022.91 1023.29 1023.61 1023.91 1024.18 1024.42 1024.64 1024.82 1024.95 1025.02 1025.05 1025.03 1024.98 1024.91 1024.81 1024.67 1024.50 1024.27 1023.96 1023.58 1023.13
1015.93 1015.13 1014.29 1013.52 1012.95 1012.69 1012.77 1013.18 1013.84 1014.66 1015.49 1016.20 1016.72 1016.98 1017.02 1016.89 1016.68 1016.52 1016.48 1016.65 1017.05 1017.65 1018.42 1019.28 1020.15 1020.97 1021.69 1022.29 1022.79 1023.20 1023.56 1023.87 1024.17 1024.44 1024.70 1024.91 1025.07 1025.16 1025.20 1025.18 1025.12 1025.03 1024.92 1024.78 1024.62 1024.43 1024.17 1023.86 1023.49
1017.16 1016.20 1015.20 1014.33 1013.72 1013.47 1013.63 1014.17 1015.00 1015.96 1016.91 1017.69 1018.19 1018.38 1018.26 1017.91 1017.46 1017.04 1016.77 1016.73 1016.97 1017.47 1018.18 1019.02 1019.90 1020.75 1021.50 1022.14 1022.66 1023.10 1023.46 1023.80 1024.11 1024.41 1024.69 1024.93 1025.11 1025.22 1025.26 1025.23 1025.15 1025.04 1024.91 1024.78 1024.64 1024.48 1024.30 1024.08 1023.80
1018.42 1017.31 1016.19 1015.23 1014.58 1014.35 1014.56 1015.19 1016.12 1017.20 1018.24 1019.06 1019.57 1019.69 1019.47 1018.97 1018.34 1017.73 1017.27 1017.06 1017.15 1017.54 1018.17 1018.96 1019.81 1020.64 1021.39 1022.02 1022.54 1022.97 1023.34 1023.68 1024.00 1024.32 1024.63 1024.89 1025.09 1025.21 1025.24 1025.20 1025.11 1024.97 1024.83 1024.69 1024.57 1024.46 1024.36 1024.23 1024.07
1019.64 1018.43 1017.23 1016.21 1015.53 1015.30 1015.54 1016.22 1017.21 1018.34 1019.42 1020.27 1020.77 1020.87 1020.59 1020.01 1019.28 1018.55 1017.97 1017.64 1017.61 1017.89 1018.43 1019.13 1019.91 1020.68 1021.38 1021.96 1022.45 1022.85 1023.20 1023.53 1023.86 1024.19 1024.51 1024.79 1025.00 1025.13 1025.17 1025.12 1025.01 1024.86 1024.70 1024.57 1024.47 1024.40 1024.36 1024.33 1024.27
1020.78 1019.54 1018.32 1017.29 1016.61 1016.38 1016.62 1017.30 1018.28 1019.41 1020.48 1021.32 1021.81 1021.90 1021.60 1021.01 1020.25 1019.48 1018.84 1018.44 1018.33 1018.51 1018.94 1019.54 1020.21 1020.88 1021.48 1021.99 1022.42 1022.77 1023.08 1023.39 1023.71 1024.04 1024.36 1024.65 1024.87 1025.01 1025.05 1025.00 1024.88 1024.73 1024.57 1024.43 1024.34 1024.31 1024.32 1024.35 1024.38
1021.87 1020.68 1019.50 1018.52 1017.87 1017.64 1017.86 1018.49 1019.41 1020.46 1021.46 1022.24 1022.71 1022.79 1022.51 1021.94 1021.21 1020.46 1019.83 1019.40 1019.24 1019.34 1019.66 1020.14 1020.68 1021.23 1021.71 1022.13 1022.46 1022.75 1023.02 1023.29 1023.59 1023.90 1024.22 1024.51 1024.73 1024.87 1024.92 1024.87 1024.75 1024.59 1024.43 1024.29 1024.21 1024.19 1024.22 1024.28 1024.35
1022.95 1021.87 1020.81 1019.93 1019.33 1019.12 1019.30 1019.83 1020.63 1021.55 1022.41 1023.10 1023.49 1023.55 1023.29 1022.78 1022.11 1021.43 1020.84 1020.43 1020.24 1020.28 1020.51 1020.86 1021.27 1021.68 1022.04 1022.35 1022.60 1022.81 1023.02 1023.25 1023.51 1023.80 1024.10 1024.37 1024.59 1024.72 1024.77 1024.72 1024.61 1024.45 1024.29 1024.15 1024.05 1024.02 1024.04 1024.10 1024.18
1024.04 1023.15 1022.26 1021.51 1021.00 1020.80 1020.92 1021.33 1021.96 1022.68 1023.36 1023.90 1024.19 1024.20 1023.95 1023.50 1022.92 1022.32 1021.80 1021.43 1021.23 1021.23 1021.37 1021.61 1021.90 1022.19 1022.43 1022.63 1022.80 1022.95 1023.10 1023.28 1023.50 1023.75 1024.00 1024.24 1024.43 1024.55 1024.59 1024.55 1024.44 1024.28 1024.12 1023.97 1023.86 1023.79 1023.78 1023.81 1023.86
1025.18 1024.50 1023.81 1023.22 1022.80 1022.60 1022.64 1022.91 1023.33 1023.82 1024.28 1024.62 1024.77 1024.72 1024.46 1024.05 1023.55 1023.04 1022.60 1022.28 1022.10 1022.06 1022.14 1022.30 1022.48 1022.67 1022.82 1022.94 1023.04 1023.13 1023.23 1023.36 1023.53 1023.72 1023.93 1024.12 1024.27 1024.36 1024.38 1024.33 1024.22 1024.07 1023.91 1023.75 1023.61 1023.51 1023.44 1023.42 1023.41
1026.33 1025.86 1025.37 1024.92 1024.58 1024.38 1024.33 1024.43 1024.62 1024.87 1025.08 1025.21 1025.22 1025.07 1024.79 1024.41 1023.98 1023.56 1023.19 1022.92 1022.76 1022.71 1022.75 1022.84 1022.95 1023.06 1023.15 1023.22 1023.27 1023.32 1023.38 1023.47 1023.58 1023.72 1023.86 1023.98 1024.08 1024.13 1024.12 1024.06 1023.95 1023.80 1023.64 1023.47 1023.31 1023.17 1023.05 1022.96 1022.89
Thickness
5694 5696 5699 5698 5692 5686 5684 5685 5685 5681 5680 5678 5677 5679 5680 5678 5675 5668 5659 5661 5661 5661 5662 5663 5664 5666 5668 5669 5671 5673 5674 5675 5677 5678 5680 5681 5683 5685 5686 5688 5690 5691 5692 5693 5694 5694 5695 5695 5695
5690 5692 5693 5691 5684 5680 5680 5681 5676 5676 5673 5669 5667 5669 5669 5666 5661 5657 5654 5653 5655 5655 5656 5657 5658 5660 5661 5663 5665 5666 5668 5669 5670 5671 5673 5675 5677 5679 5680 5683 5684 5686 5687 5688 5689 5689 5690 5690 5690
5686 5687 5686 5681 5676 5679 5677 5674 5672 5665 5662 5661 5660 5659 5660 5657 5652 5649 5648 5647 5648 5649 5650 5650 5651 5653 5654 5656 5657 5659 5660 5662 5663 5665 5666 5668 5670 5672 5674 5676 5678 5680 5681 5683 5684 5684 5685 5686 5686
5682 5680 5677 5672 5669 5670 5670 5667 5663 5656 5653 5652 5654 5651 5648 5643 5643 5641 5640 5640 5642 5642 5643 5643 5644 5645 5646 5648 5649 5651 5652 5654 5655 5657 5659 5661 5663 5664 5667 5669 5671 5673 5675 5677 5678 5679 5680 5681 5681
5677 5674 5667 5663 5664 5663 5660 5657 5655 5653 5650 5646 5646 5645 5640 5634 5633 5632 5632 5632 5634 5635 5635 5636 5636 5637 5638 5639 5641 5642 5644 5645 5647 5649 5651 5653 5655 5657 5659 5661 5664 5666 5668 5670 5671 5673 5674 5675 5676
5668 5667 5662 5661 5661 5655 5651 5648 5646 5646 5643 5638 5637 5637 5634 5626 5625 5624 5624 5624 5625 5626 5627 5627 5628 5629 5630 5631 5632 5633 5635 5636 5638 5640 5642 5644 5646 5649 5651 5654 5656 5659 5661 5663 5665 5666 5668 5669 5669
5660 5657 5657 5657 5653 5648 5644 5640 5638 5639 5636 5632 5631 5631 5627 5619 5617 5616 5615 5615 5616 5616 5617 5619 5620 5620 5621 5622 5623 5624 5626 5627 5629 5630 5632 5635 5637 5640 5643 5645 5648 5651 5653 5656 5658 5659 5661 5662 5663
5653 5650 5645 5646 5645 5643 5637 5631 5629 5629 5628 5624 5622 5624 5622 5614 5608 5607 5606 5606 5606 5607 5608 5609 5610 5611 5612 5613 5614 5615 5616 5617 5619 5620 5622 5625 5628 5631 5634 5637 5640 5643 5645 5648 5650 5652 5654 5655 5656
5643 5640 5640 5641 5638 5637 5628 5623 5619 5616 5616 5611 5611 5613 5610 5604 5600 5599 5598 5598 5598 5598 5598 5599 5600 5601 5601 5603 5604 5605 5606 5607 5609 5611 5613 5616 5619 5622 5625 5628 5631 5634 5637 5640 5642 5644 5647 5648 5649
5634 5633 5634 5630 5628 5625 5618 5616 5612 5609 5608 5605 5602 5600 5596 5594 5593 5593 5593 5592 5591 5590 5589 5589 5589 5590 5591 5592 5594 5595 5596 5597 5599 5601 5604 5606 5609 5612 5615 5618 5622 5625 5628 5631 5633 5636 5639 5641 5643
5622 5623 5620 5614 5612 5611 5608 5605 5602 5603 5604 5604 5602 5595 5588 5586 5586 5586 5585 5585 5583 5581 5579 5578 5579 5580 5581 5582 5584 5585 5586 5587 5589 5591 5594 5596 5599 5602 5606 5609 5613 5616 5619 5622 5625 5629 5632 5635 5637
5609 5607 5605 5603 5598 5598 5598 5596 5592 5593 5600 5597 5594 5589 5583 5580 5580 5579 5578 5576 5573 5571 5569 5568 5568 5569 5570 5571 5573 5574 5575 5577 5579 5581 5584 5586 5589 5592 5596 5600 5603 5607 5610 5613 5617 5620 5624 5627 5630
5600 5597 5592 5591 5588 5587 5586 5585 5585 5586 5586 5583 5581 5578 5576 5575 5574 5571 5568 5565 5564 5562 5560 5559 5558 5559 5560 5561 5562 5563 5564 5566 5568 5570 5573 5576 5579 5582 5586 5589 5593 5597 5600 5604 5607 5611 5615 5618 5621
5590 5587 5584 5582 5580 5577 5576 5577 5574 5582 5577 5574 5572 5570 5569 5567 5565 5562 5559 5557 5555 5553 5551 5549 5548 5549 5549 5550 5551 5552 5553 5554 5557 5559 5562 5565 5568 5572 5575 5579 5583 5586 5590 5593 5597 5601 5605 5609 5612
5577 5577 5577 5576 5572 5568 5566 5572 5572 5575 5568 5566 5565 5563 5560 5558 5556 5554 5551 5548 5546 5543 5541 5539 5538 5538 5539 5539 5540 5541 5542 5543 5546 5548 5550 5554 5557 5561 5564 5568 5572 5576 5579 5583 5587 5591 5595 5599 5602
5570 5571 5576 5573 5564 5559 5558 5576 5574 5564 5559 5559 5557 5554 5551 5548 5545 5543 5540 5538 5535 5533 5531 5529 5528 5528 5528 5528 5528 5529 5530 5532 5534 5536 5539 5542 5546 5550 5554 5557 5561 5564 5568 5572 5577 5581 5585 5588 5592
5565 5569 5570 5567 5555 5551 5551 5565 5563 5552 5549 5551 5549 5545 5542 5539 5535 5532 5530 5527 5525 5523 5521 5519 5518 5517 5517 5516 5516 5517 5519 5520 5522 5524 5527 5530 5534 5538 5543 5546 5549 5552 5556 5560 5565 5570 5574 5577 5581
5563 5562 5561 5559 5550 5542 5544 5553 5552 5543 5539 5541 5541 5537 5533 5530 5527 5523 5519 5517 5514 5512 5510 5509 5508 5506 5506 5506 5506 5507 5508 5510 5511 5513 5516 5518 5522 5526 5530 5534 5537 5540 5545 5549 5553 5558 5562 5565 5569
5546 5546 5549 5549 5536 5532 5539 5543 5542 5536 5530 5530 5529 5526 5523 5522 5518 5513 5509 5506 5504 5502 5500 5498 5497 5496 5496 5496 5497 5498 5499 5500 5501 5503 5505 5507 5510 5513 5518 5522 5525 5528 5533 5537 5541 5546 5550 5554 5557
5531 5533 5538 5535 5522 5520 5527 5531 5533 5527 5520 5518 5516 5514 5512 5510 5507 5503 5500 5497 5495 5493 5491 5489 5487 5486 5486 5486 5486 5487 5488 5489 5491 5492 5494 5496 5498 5501 5505 5509 5513 5516 5520 5524 5529 5534 5539 5542 5546
5523 5524 5524 5519 5513 5507 5508 5532 5528 5519 5511 5507 5504 5503 5500 5497 5495 5492 5489 5487 5484 5483 5481 5479 5477 5476 5475 5475 5475 5475 5476 5478 5480 5482 5483 5485 5486 5488 5492 5496 5500 5504 5508 5513 5517 5522 5527 5532 5534
5517 5508 5502 5499 5500 5514 5502 5523 5529 5511 5504 5499 5495 5491 5488 5485 5483 5481 5478 5476 5474 5472 5470 5468 5467 5465 5465 5464 5465 5466 5468 5470 5471 5471 5472 5473 5475 5477 5479 5483 5487 5492 5496 5500 5505 5510 5516 5520 5524
5496 5487 5485 5486 5487 5491 5492 5493 5521 5498 5496 5492 5486 5480 5476 5473 5472 5470 5467 5465 5462 5460 5459 5458 5457 5456 5455 5455 5455 5456 5458 5459 5459 5460 5461 5463 5464 5465 5468 5471 5475 5480 5483 5488 5493 5498 5503 5508 5513
5473 5472 5470 5470 5475 5484 5487 5487 5509 5497 5488 5483 5474 5468 5464 5461 5460 5458 5456 5453 5451 5450 5448 5447 5447 5446 5445 5445 5444 5445 5447 5448 5448 5450 5452 5453 5454 5455 5457 5460 5463 5467 5471 5476 5480 5485 5491 5496 5500
5464 5472 5482 5485 5483 5494 5464 5468 5487 5480 5470 5465 5460 5457 5453 5449 5447 5445 5444 5442 5441 5440 5438 5437 5437 5436 5436 5435 5435 5435 5436 5437 5438 5440 5442 5443 5444 5445 5447 5449 5452 5455 5459 5463 5467 5472 5477 5482 5487
5454 5458 5468 5478 5489 5490 5455 5465 5478 5456 5447 5445 5442 5441 5440 5437 5435 5433 5432 5431 5430 5429 5428 5427 5427 5427 5426 5425 5425 5425 5425 5426 5427 5429 5430 5432 5433 5434 5435 5437 5441 5444 5446 5451 5455 5460 5465 5469 5474
5441 5444 5438 5442 5436 5444 5469 5461 5455 5441 5434 5432 5432 5430 5428 5426 5424 5421 5419 5418 5418 5417 5416 5416 5416 5416 5416 5415 5415 5414 5414 5414 5416 5417 5419 5421 5422 5423 5424 5426 5429 5431 5434 5438 5443 5448 5453 5457 5462
5424 5425 5425 5429 5438 5454 5464 5455 5457 5437 5429 5424 5422 5419 5417 5413 5411 5409 5408 5407 5406 5405 5404 5404 5404 5405 5405 5405 5404 5404 5404 5404 5404 5406 5408 5409 5411 5413 5413 5415 5418 5420 5423 5426 5431 5436 5441 5446 5451
5410 5409 5414 5421 5420 5434 5447 5453 5434 5424 5417 5412 5410 5407 5403 5400 5399 5398 5396 5395 5394 5393 5393 5393 5393 5393 5394 5394 5393 5392 5392 5393 5393 5395 5397 5398 5400 5402 5403 5404 5407 5410 5413 5415 5420 5425 5430 5434 5439
5404 5405 5403 5410 5411 5405 5420 5431 5406 5402 5399 5397 5396 5393 5391 5388 5387 5385 5384 5383 5382 5382 5382 5381 5381 5381 5382 5382 5381 5380 5380 5381 5382 5384 5386 5387 5390 5391 5392 5394 5397 5399 5402 5406 5410 5415 5419 5424 5429